Location: Lombard
(41.8800°N, 88.0080°W)
Time: 00:05:15
(UTC-05:00)

Tiros 1 - Pass Details

Date: 01 February 2023
Orbit: 628 x 662 km, 48.4° (Epoch: 20 March)

Event Time Altitude Azimuth Distance (km) Brightness Sun altitude
Rises 03:38:35 0° 282° (WNW) 2,922 - -38.5°
Reaches altitude 10° 03:41:03 10° 291° (WNW) 2,019 - -38.0°
Maximum altitude 03:45:21 36° 358° (N) 1,006 - -37.2°
Exits shadow 03:48:31 17° 58° (ENE) 1,635 9.8 -36.7°
Drops below altitude 10° 03:49:43 10° 66° (ENE) 2,040 10.4 -36.4°
Sets 03:52:13 0° 75° (ENE) 2,956 11.5 -36.0°
